#timestamp,LO_Frequency,Hit,StdDev 
1653170415.6,286046994.7,P
1653170435.4,286046994.8,N
1653170455.2,286046995.8,N
1653170475.1,286046993.5,Y
1653170476.0,286046993.7,P
1653170495.8,286046999.7,N
1653170515.7,286046998.3,N
1653170535.5,286046998.3,N
1653170555.3,286046998.5,N
1653170575.2,286046999.5,N
1653170595.0,286046995.3,N
1653170595.9,286046998.0,N
1653170615.8,286046995.2,N
1653170635.6,286046998.0,N
1653170655.4,286046997.4,N
1653170675.3,286046997.6,N
1653170695.1,286046997.3,N
1653170715.8,286046999.2,N
1653170735.7,286046998.5,N
1653170755.5,286047001.2,N
1653170775.4,286046999.4,N
1653170795.2,286046998.6,N
1653170815.0,286047001.2,N
1653170815.9,286047002.8,N
1653170835.8,286047001.2,N
1653170855.6,286047000.1,N
1653170875.5,286046998.1,N
1653170895.3,286046999.7,N
1653170915.1,286047002.1,N
1653170935.9,286047001.3,N
1653170955.7,286047001.4,N
1653170975.5,286047001.8,N
1653170995.4,286047003.2,N
1653171015.2,286047005.8,N
1653171035.1,286047005.7,N
1653171036.0,286047005.7,N
1653171055.8,286047004.5,N
1653171075.6,286047006.4,N
1653171095.5,286047010.7,Y
1653171115.3,286047009.0,P
1653171135.1,286047006.7,N
1653171155.9,286047002.9,N
1653171175.7,286047006.0,N
1653171195.6,286047004.1,N
1653171215.4,286047003.5,N
1653171235.2,286047002.9,N
1653171255.1,286047002.9,N
1653171256.0,286047003.5,N
1653171275.8,286047005.2,N
1653171295.7,286047005.5,N
1653171315.5,286047005.0,N
1653171335.3,286047009.0,Y
1653171355.2,286047005.8,P
1653171375.0,286047007.4,P
1653171375.9,286047007.0,P
1653171395.8,286047008.4,Y
1653171415.6,286047003.3,P
1653171435.4,286047001.6,N
1653171455.3,286047002.0,N
1653171475.1,286047001.9,N
1653171495.8,286047002.9,N
1653171515.7,286047007.6,Y
1653171535.5,286047003.7,P
1653171555.4,286047004.3,P
1653171575.2,286047002.7,P
1653171595.0,286047002.5,Y
1653171596.0,286047001.5,P
1653171615.8,286046997.4,N
1653171635.6,286046995.4,N
1653171655.5,286046996.1,N
1653171675.3,286046997.0,N
1653171695.1,286046998.7,N
1653171715.9,286047000.3,N
1653171735.7,286046998.6,N
1653171755.6,286046999.2,N
1653171775.4,286046997.2,N
1653171795.2,286046997.7,N
1653171815.1,286046997.7,N
1653171816.0,286046998.9,N
1653171835.8,286046999.0,N
1653171855.6,286046999.6,N
1653171875.5,286046997.6,N
1653171895.3,286046997.7,N
1653171915.2,286046995.3,N
1653171935.9,286046994.0,Y
1653171955.7,286046993.4,P
1653171975.6,286046994.9,N
1653171995.4,286046995.5,N
1653172015.2,286046997.3,N
1653172035.1,286046997.1,N
1653172036.0,286046995.4,N
1653172055.8,286046996.0,N
1653172075.7,286046993.7,Y
1653172095.5,286046998.6,P
1653172115.3,286047000.7,N
1653172135.2,286046995.1,N
1653172155.0,286046996.1,N
1653172155.9,286046996.3,N
1653172175.8,286046994.8,N
1653172195.6,286046992.0,Y
1653172215.4,286046993.8,P
1653172235.3,286046995.5,P
1653172255.1,286046998.0,N
1653172275.9,286046999.2,N
1653172295.7,286046999.0,N
1653172315.5,286046998.3,N
1653172335.4,286046998.4,N
1653172355.2,286046998.5,N
1653172375.0,286046998.8,N
1653172375.9,286046998.3,N
1653172395.8,286046999.0,N
1653172415.6,286046995.7,N
1653172435.5,286046994.5,Y
1653172455.3,286046993.8,P
1653172475.1,286046993.7,P
1653172495.9,286046996.9,N
1653172515.7,286046998.3,N
1653172535.5,286047002.8,N
1653172555.4,286047001.4,N
1653172575.2,286047006.3,N
1653172595.0,286047008.4,N
1653172596.0,286047009.0,N
1653172615.8,286047009.1,N
1653172635.6,286047008.3,N
1653172655.5,286047010.8,N
1653172675.3,286047008.3,N
1653172695.1,286047012.1,N
1653172715.9,286047013.9,N
1653172735.7,286047013.9,N
1653172755.6,286047013.5,N
1653172775.4,286047011.1,N
1653172795.2,286047011.7,N
1653172815.1,286047011.7,N
1653172816.0,286047011.9,N
1653172835.8,286047012.0,N
1653172855.6,286047010.1,N
1653172875.5,286047009.2,N
1653172895.3,286047008.9,N
1653172915.2,286047010.4,N
1653172935.9,286047009.0,N
1653172955.7,286047008.6,N
1653172975.6,286047008.4,N
1653172995.4,286047010.5,N
1653173015.2,286047011.8,N
1653173035.1,286047011.2,N
1653173036.0,286047013.6,Y
1653173055.8,286047001.7,P
1653173075.7,286047003.4,N
1653173095.5,286047003.4,N
1653173115.3,286047003.6,N
1653173135.2,286047003.0,N
1653173155.0,286047003.1,N
1653173155.9,286047005.1,N
1653173175.7,286047005.4,N
1653173195.6,286047002.1,N
1653173215.4,286047003.7,N
1653173235.3,286047005.6,N
1653173255.1,286047005.2,N
1653173275.8,286047005.3,N
1653173295.7,286047005.1,N
1653173315.5,286047007.5,Y
1653173335.4,286046996.5,P
1653173355.2,286046999.5,N
1653173375.0,286046997.0,N
1653173375.9,286046997.6,N
1653173395.8,286046999.1,N
1653173415.6,286046998.2,N
1653173435.5,286047001.0,N
1653173455.3,286047002.4,N
1653173475.1,286047001.9,N
1653173495.9,286046999.1,N
1653173515.7,286046995.4,N
1653173535.5,286046999.2,N
1653173555.4,286046997.3,N
1653173575.2,286046996.0,N
1653173595.1,286046992.2,Y
1653173596.0,286046993.1,P
1653173615.8,286046994.5,N
1653173635.6,286046994.0,N
1653173655.5,286046996.1,N
1653173675.3,286047003.1,N
1653173695.2,286047004.4,N
1653173715.9,286047001.0,N
1653173735.7,286046999.5,N
1653173755.6,286046997.9,N
1653173775.4,286046996.5,N
1653173795.3,286046996.5,N
1653173815.1,286047001.1,N
1653173816.0,286047001.9,N
1653173835.8,286047003.8,N
1653173855.7,286047005.1,N
1653173875.5,286047006.4,N
1653173895.3,286047009.2,N
1653173915.2,286047010.4,N
1653173935.0,286047009.4,N
1653173935.9,286047014.0,N
1653173955.8,286047017.2,N
1653173975.6,286047016.7,N
1653173995.4,286047022.9,Y
